Weather History for Chicago Executive, IL

Change the Weather History Date:

Wednesday, June 26, 2013

  Actual Average Record
Temperature  
Mean Temperature 73 °F 72 °F  
Max Temperature 79 °F 82 °F 92 °F (2007)
Min Temperature 66 °F 61 °F 54 °F (2004)
Degree Days  
Heating Degree Days 0 1  
Month to date heating degree days 57 53  
Since 1 June heating degree days 57 53  
Since 1 July heating degree days 6372 6411  
Cooling Degree Days 8 7  
Month to date cooling degree days 121 125  
Year to date cooling degree days 202 167  
Since 1 June cooling degree days 121 125  
Growing Degree Days 22 (Base 50)    
Moisture  
Dew Point 66 °F    
Average Humidity 82    
Maximum Humidity 94    
Minimum Humidity 65    
Precipitation  
Precipitation 4.53 in 0.09 in 4.53 in (2013)
Month to date precipitation 6.86 3.41  
Year to date precipitation 16.82 14.90  
Sea Level Pressure  
Sea Level Pressure 29.79 in    
Wind  
Wind Speed 5 mph (East)    
Max Wind Speed 18 mph    
Max Gust Speed 23 mph    
Visibility 7 miles    
Events Rain , Thunderstorm    
T = Trace of Precipitation, MM = Missing Value Source: NWS Daily Summary

Daily Weather History Graph

Daily Weather History Graph

Search for Another Location

Airport:

Trip Planner

Search our weather history database for the weather conditions in past years. The results will help you decide how hot, cold, wet, or windy it might be!

Date:

Astronomy

Jun. 26, 2013 Rise Set
Actual Time 5:17 AM CDT 8:31 PM CDT
Civil Twilight 4:42 AM CDT 9:06 PM CDT
Nautical Twilight 3:58 AM CDT 9:50 PM CDT
Astronomical Twilight 3:04 AM CDT 10:44 PM CDT
Moon 10:49 PM CDT (6/26) 9:12 AM CDT (6/26)
Length of Visible Light 16h 23m
Length of Day
15h 14m
Waning Gibbous, 85% of the Moon is Illuminated
Jun 26
Waning Gibbous
Jun 29
Last Quarter
Jul 8
New
Jul 15
First Quarter
Jul 22
Full

Hourly Weather History & Observations

Time (CDT) Temp. Dew Point Humidity Pressure Visibility Wind Dir Wind Speed Gust Speed Precip Events Conditions
12:52 AM 73.0 °F 64.9 °F 76% 29.83 in 10.0 mi South 8.1 mph - N/A   Scattered Clouds
1:52 AM 72.0 °F 64.9 °F 78% 29.80 in 10.0 mi South 4.6 mph - N/A   Partly Cloudy
2:52 AM 71.1 °F 64.9 °F 81% 29.79 in 10.0 mi SE 3.5 mph - N/A   Mostly Cloudy
3:40 AM 71.6 °F 64.4 °F 78% 29.79 in 10.0 mi SSE 5.8 mph - N/A Thunderstorm Thunderstorm
3:52 AM 71.1 °F 66.0 °F 84% 29.78 in 10.0 mi South 4.6 mph - N/A Thunderstorm Thunderstorm
4:06 AM 71.6 °F 66.2 °F 83% 29.80 in 1.8 mi SW 9.2 mph 16.1 mph 0.19 in Rain , Thunderstorm Heavy Thunderstorms and Rain
4:12 AM 71.6 °F 66.2 °F 83% 29.82 in 0.8 mi WSW 3.5 mph - 0.44 in Rain , Thunderstorm Heavy Thunderstorms and Rain
4:25 AM 69.8 °F 66.2 °F 88% 29.85 in 0.8 mi NNE 10.4 mph - 1.03 in Rain , Thunderstorm Heavy Thunderstorms and Rain
4:42 AM 68.0 °F 66.2 °F 94% 29.83 in 1.0 mi ENE 6.9 mph - 1.72 in Rain , Thunderstorm Heavy Thunderstorms and Rain
4:49 AM 68.0 °F 64.4 °F 88% 29.83 in 1.0 mi North 3.5 mph - 1.94 in Rain , Thunderstorm Heavy Thunderstorms and Rain
4:52 AM 68.0 °F 64.9 °F 90% 29.82 in 1.0 mi North 9.2 mph - 1.99 in Rain , Thunderstorm Heavy Thunderstorms and Rain
5:02 AM 68.0 °F 64.4 °F 88% 29.81 in 1.2 mi North 8.1 mph 20.7 mph 0.25 in Rain , Thunderstorm Heavy Thunderstorms and Rain
5:20 AM 68.0 °F 64.4 °F 88% 29.83 in 0.8 mi NW 13.8 mph 23.0 mph 0.68 in Rain , Thunderstorm Heavy Thunderstorms and Rain
5:26 AM 68.0 °F 64.4 °F 88% 29.81 in 1.2 mi North 11.5 mph 21.9 mph 0.77 in Rain , Thunderstorm Heavy Thunderstorms and Rain
5:31 AM 66.2 °F 64.4 °F 94% 29.80 in 2.0 mi North 10.4 mph 19.6 mph 0.81 in Rain , Thunderstorm Heavy Thunderstorms and Rain
5:52 AM 68.0 °F 64.0 °F 87% 29.81 in 5.0 mi Calm Calm - 0.91 in Rain , Thunderstorm Light Thunderstorms and Rain
6:03 AM 68.0 °F 64.4 °F 88% 29.86 in 1.8 mi WNW 10.4 mph - 0.15 in Rain , Thunderstorm Heavy Thunderstorms and Rain
6:07 AM 66.2 °F 64.4 °F 94% 29.87 in 0.8 mi West 6.9 mph - 0.27 in Rain , Thunderstorm Heavy Thunderstorms and Rain
6:52 AM 66.9 °F 64.9 °F 93% 29.85 in 0.8 mi SSE 10.4 mph - 1.30 in Rain , Thunderstorm Heavy Thunderstorms and Rain
7:02 AM 66.2 °F 64.4 °F 94% 29.85 in 2.0 mi SSE 6.9 mph - 0.11 in Rain , Thunderstorm Heavy Thunderstorms and Rain
7:11 AM 66.2 °F 64.4 °F 94% 29.85 in 4.0 mi SSE 6.9 mph - 0.14 in Rain , Thunderstorm Thunderstorms and Rain
7:44 AM 66.2 °F 64.4 °F 94% 29.84 in 10.0 mi SSE 9.2 mph - 0.20 in Rain Light Rain
7:52 AM 66.9 °F 64.9 °F 93% 29.83 in 10.0 mi SSE 9.2 mph - 0.20 in Rain Light Rain
8:52 AM 69.1 °F 66.0 °F 90% 29.82 in 10.0 mi SE 6.9 mph - 0.00 in   Mostly Cloudy
9:08 AM 69.8 °F 66.2 °F 88% 29.83 in 1.8 mi SE 10.4 mph - 0.08 in Rain Heavy Rain
9:16 AM 69.8 °F 64.4 °F 83% 29.82 in 3.0 mi SE 10.4 mph - 0.09 in Rain Light Rain
9:52 AM 69.1 °F 64.9 °F 87% 29.80 in 10.0 mi SE 6.9 mph - 0.13 in   Mostly Cloudy
10:52 AM 71.1 °F 64.9 °F 81% 29.77 in 10.0 mi SSE 11.5 mph - N/A   Mostly Cloudy
11:52 AM 73.9 °F 66.0 °F 76% 29.78 in 10.0 mi SSW 8.1 mph - N/A   Mostly Cloudy
12:52 PM 75.0 °F 66.0 °F 73% 29.76 in 10.0 mi South 10.4 mph - N/A   Scattered Clouds
1:52 PM 75.9 °F 66.0 °F 71% 29.74 in 10.0 mi South 6.9 mph - N/A   Scattered Clouds
2:06 PM 75.2 °F 66.2 °F 73% 29.75 in 10.0 mi South 6.9 mph - N/A   Mostly Cloudy
2:17 PM 77.0 °F 66.2 °F 69% 29.75 in 10.0 mi Variable 4.6 mph - N/A   Scattered Clouds
2:24 PM 77.0 °F 66.2 °F 69% 29.76 in 10.0 mi West 6.9 mph - N/A   Mostly Cloudy
2:52 PM 77.0 °F 66.9 °F 71% 29.76 in 10.0 mi WSW 4.6 mph - 0.00 in Rain Light Rain
3:12 PM 78.8 °F 66.2 °F 65% 29.77 in 10.0 mi SW 8.1 mph - 0.00 in   Mostly Cloudy
3:52 PM 78.1 °F 66.0 °F 66% 29.75 in 10.0 mi SW 5.8 mph - 0.00 in   Mostly Cloudy
4:52 PM 78.1 °F 66.9 °F 68% 29.73 in 10.0 mi Calm Calm - N/A   Overcast
5:27 PM 77.0 °F 68.0 °F 74% 29.75 in 10.0 mi NE 5.8 mph - N/A   Overcast
5:52 PM 73.9 °F 66.9 °F 79% 29.75 in 10.0 mi NNE 8.1 mph - N/A   Overcast
6:15 PM 73.4 °F 66.2 °F 78% 29.75 in 10.0 mi NE 6.9 mph - N/A   Mostly Cloudy
6:27 PM 73.4 °F 66.2 °F 78% 29.75 in 10.0 mi NNE 5.8 mph - N/A   Overcast
6:52 PM 73.0 °F 66.0 °F 79% 29.73 in 10.0 mi NE 4.6 mph - N/A   Overcast
7:10 PM 73.4 °F 66.2 °F 78% 29.74 in 10.0 mi NE 5.8 mph - N/A   Partly Cloudy
7:37 PM 73.4 °F 66.2 °F 78% 29.75 in 10.0 mi Calm Calm - N/A   Mostly Cloudy
7:52 PM 73.9 °F 66.0 °F 76% 29.75 in 10.0 mi North 3.5 mph - N/A   Overcast
8:31 PM 73.4 °F 66.2 °F 78% 29.76 in 10.0 mi NNE 3.5 mph - N/A   Overcast
8:52 PM 72.0 °F 66.0 °F 81% 29.75 in 10.0 mi North 3.5 mph - N/A   Scattered Clouds
9:25 PM 71.6 °F 66.2 °F 83% 29.77 in 10.0 mi NNE 3.5 mph - N/A   Mostly Cloudy
9:39 PM 71.6 °F 66.2 °F 83% 29.76 in 10.0 mi NNE 3.5 mph - N/A   Scattered Clouds
9:52 PM 71.1 °F 66.0 °F 84% 29.76 in 10.0 mi NNW 3.5 mph - N/A   Clear
10:52 PM 69.1 °F 66.0 °F 90% 29.77 in 9.0 mi NE 5.8 mph - N/A   Clear
11:52 PM 66.9 °F 64.0 °F 90% 29.78 in 8.0 mi NW 3.5 mph - N/A   Clear